Location: Nemiskam
(49.4820°N, 111.2775°W)
Time: 04:12:03
(UTC+00:00)

BlueWalker 3 - Visible Passes

Search period start: 30 November 2022 00:00
Search period end: 10 December 2022 00:00
Orbit: 500 x 519 km, 53.2° (Epoch: 29 November)

Date Brightness Start Highest point End Pass type
(mag) Time Alt. Az. Time Alt. Az. Time Alt. Az.
30 Nov 2.1 00:47:55 10° WSW 00:51:51 69° NNW 00:54:15 22° ENE visible
30 Nov 3.9 02:27:04 10° WNW 02:29:04 27° WNW 02:29:04 27° WNW visible
01 Dec 2.1 00:29:34 10° WSW 00:33:28 67° NNW 00:36:35 15° ENE visible
01 Dec 3.2 02:08:43 10° WNW 02:11:25 36° NW 02:11:25 36° NW visible
02 Dec 2.1 00:11:12 10° W 00:15:07 65° NNW 00:18:55 10° ENE visible
02 Dec 2.6 01:50:21 10° WNW 01:53:45 46° NNW 01:53:45 46° NNW visible
03 Dec 2.3 01:31:59 10° WNW 01:35:47 48° N 01:36:05 47° NNE visible
03 Dec 5.3 03:10:47 10° WNW 03:10:55 11° WNW 03:10:55 11° WNW visible
04 Dec 2.4 01:13:36 10° WNW 01:17:25 48° N 01:18:27 37° NE visible
04 Dec 4.8 02:52:24 10° WNW 02:53:17 16° WNW 02:53:17 16° WNW visible
05 Dec 2.3 00:55:13 10° WNW 00:59:02 49° N 01:00:51 27° ENE visible
05 Dec 4.1 02:34:00 10° WNW 02:35:41 24° WNW 02:35:41 24° WNW visible
06 Dec 2.3 00:36:49 10° WNW 00:40:39 49° N 00:43:19 18° ENE visible
06 Dec 3.3 02:15:36 10° WNW 02:18:09 38° WNW 02:18:09 38° WNW visible
07 Dec 2.3 00:18:25 10° WNW 00:22:15 50° N 00:25:50 11° E visible
07 Dec 2.3 01:57:12 10° WNW 02:00:40 64° WSW 02:00:40 64° WSW visible
08 Dec 2.3 00:00:01 10° WNW 00:03:52 51° N 00:07:41 10° E visible
08 Dec 2.1 01:38:47 10° WNW 01:42:41 70° SSW 01:43:18 57° SSE visible
09 Dec 2.2 01:20:22 10° WNW 01:24:16 67° SSW 01:26:05 29° SE visible
09 Dec 5.1 03:00:03 10° W 03:00:57 13° WSW 03:00:57 13° WSW visible
